Regional Weather Roundup
Issued by NWS Green Bay, WI

Home | Current Version | Previous Version | Graphics & Text | Print | Product List | Glossary Off
Versions: 1 2 3 4 5 6 7 8 9 10 11 12 13 14 15 16 17 18 19 20 21 22 23 24 25 26 27 28 29 30 31 32 33 34 35 36 37 38 39 40 41 42 43 44 45 46 47 48 49 50

000
ASUS43 KGRB 220511
RWRGRB

NORTH-CENTRAL AND NORTHEAST WISCONSIN REGIONAL WEATHER ROUNDUP
NATIONAL WEATHER SERVICE GREEN BAY WI
1100 PM CST SUN JAN 21 2018

WIZ005-009-010>012-018-019-220600-
NORTH CENTRAL WISCONSIN

CITY           SKY/WX    TMP DP  RH WIND       PRES   REMARKS
IRONWOOD       CLOUDY    30  29  96 NE9       30.03S
MANITOWISH WTR CLOUDY    30  30 100 NE5       29.99R
ARBOR VITAE    CLOUDY    32  30  92 NE3       29.97F
EAGLE RIVER    CLOUDY    32  31  96 NE7       29.97F
LAND O LAKES   CLOUDY    32  31  98 NE5       30.00F FOG
RHINELANDER    CLOUDY    34  31  88 NE6       29.97S
PHILLIPS       CLOUDY    32  30  92 NE5       29.96S
ANTIGO         CLOUDY    34  30  86 E8        29.95S
TOMAHAWK       CLOUDY    33  29  85 NE3       29.96F
MERRILL        CLOUDY    36  31  83 NE5       29.95F
$$

WIZ013-073-220600-
NORTHEAST WISCONSIN

CITY           SKY/WX    TMP DP  RH WIND       PRES   REMARKS
IRON MOUNTAIN  CLOUDY    33  30  88 N5        29.99F
MARINETTE      NOT AVBL
OCONTO         CLOUDY    33  32  96 NE6       29.99F
$$

WIZ017-030-035>037-045-220600-
CENTRAL WISCONSIN

CITY           SKY/WX    TMP DP  RH WIND       PRES   REMARKS
MEDFORD        CLOUDY    35  30  83 NE9       29.93R
WAUSAU         CLOUDY    36  30  79 E10       29.92S
MOSINEE        NOT AVBL
MARSHFIELD     CLOUDY    36  31  82 E14       29.90F
WISC RAPIDS    CLOUDY    37  31  78 E10       29.92F
STEVENS POINT  CLOUDY    34  31  90 E9        29.94R
WAUPACA        CLOUDY    37  33  86 NE3       29.94F FOG
SHAWANO        CLOUDY    36  32  85 NE9       29.97F
CLINTONVILLE   CLOUDY    34  32  93 NE8       29.95F FOG
WAUTOMA        MIX PCPN  35  34  96 NE9       29.92F FOG
$$

WIZ038-039-048-051-220600-
FOX VALLEY

CITY           SKY/WX    TMP DP  RH WIND       PRES   REMARKS
NWS GREEN BAY  CLOUDY    33  31  92 NE12      29.96F FOG
APPLETON       FOG       34  34 100 NE7       29.93S VSB 3/4
OSHKOSH        LGT RAIN  35  34  96 NE10      29.92F VSB 1/2
FOND DU LAC    LGT RAIN  36  34  92 NE10      29.91F FOG
$$

WIZ022-050-052-220600-
EAST CENTRAL WISCONSIN

CITY           SKY/WX    TMP DP  RH WIND       PRES   REMARKS
EPHRAIM        FOG       32  32 100 N6        29.99F VSB 1/4
WASHINGTON ISL FOG       32  32 100 CALM      30.02R VSB 1/4
STURGEON BAY   LGT RAIN  34  33  96 NE6       29.99F VSB 1/4
MANITOWOC      FOG       36  36 100 NE7       29.96S VSB 3/4
SHEBOYGAN      FOG       35  35 100 NE14      29.92F VSB 1/2
$$

LMZ563-521-522-541>543-220600-
LAKESHORE

STATION/POSITION TIME  TEMP    WIND        PRES    VSBY  WAVE
                       AIR SEA DIR/SP/G                  HT/PER
                 (UTC) (F)     (DEG/KT/KT) (MB)    (MI)  (FT/S)
SHEBOYGAN LKSHOR 0500   36      40/ 14/ 15 1013.7F
KEWAUNEE LKSHORE 0448   34      30/  6/ 11 1014.3F
NORTHPORT PIER   0502   33     360/  3/  6 1016.6
SISTER BAY LKSHO 0420   34        CALM       N/A
MENOMINEE LKSHOR 0448   33      20/ 13/ 14 1015.7F
$$




USA.gov is the U.S. government's official web portal to all federal, state and local government web resources and services.